TimeEDT,TemperatureF,Dew PointF,Humidity,Sea Level PressureIn,VisibilityMPH,Wind Direction,Wind SpeedMPH,Gust SpeedMPH,PrecipitationIn,Events,Conditions,WindDirDegrees,DateUTC
12:14 AM,35.6,32.0,87,30.31,10.0,SW,4.6,-,N/A,,Clear,220,2013-05-26 04:14:00
12:34 AM,37.8,33.6,85,30.31,10.0,WSW,3.5,-,N/A,,Clear,240,2013-05-26 04:34:00
12:54 AM,38.5,33.8,83,30.31,10.0,Calm,Calm,-,N/A,,Clear,0,2013-05-26 04:54:00
1:14 AM,36.1,32.2,86,30.31,10.0,Calm,Calm,-,N/A,,Clear,0,2013-05-26 05:14:00
1:34 AM,35.8,31.5,84,30.30,10.0,Calm,Calm,-,N/A,,Clear,0,2013-05-26 05:34:00
1:54 AM,35.4,32.4,89,30.30,10.0,Calm,Calm,-,N/A,,Clear,0,2013-05-26 05:54:00
2:14 AM,37.2,33.1,85,30.30,10.0,Calm,Calm,-,N/A,,Clear,0,2013-05-26 06:14:00
2:33 AM,35.6,33.1,91,30.30,10.0,West,3.5,-,N/A,,Clear,260,2013-05-26 06:33:00
2:54 AM,34.7,31.3,87,30.30,10.0,Calm,Calm,-,N/A,,Clear,0,2013-05-26 06:54:00
3:14 AM,36.9,32.4,84,30.30,10.0,Calm,Calm,-,N/A,,Clear,0,2013-05-26 07:14:00
3:33 AM,37.8,32.5,81,30.30,10.0,Calm,Calm,-,N/A,,Clear,0,2013-05-26 07:33:00
3:54 AM,37.8,32.2,80,30.30,10.0,Calm,Calm,-,N/A,,Clear,0,2013-05-26 07:54:00
4:14 AM,36.0,31.8,85,30.31,10.0,Calm,Calm,-,N/A,,Clear,0,2013-05-26 08:14:00
4:33 AM,35.1,31.6,87,30.31,10.0,Calm,Calm,-,N/A,,Clear,0,2013-05-26 08:33:00
4:54 AM,35.6,32.0,87,30.31,10.0,Calm,Calm,-,N/A,,Clear,0,2013-05-26 08:54:00
5:14 AM,36.7,32.0,83,30.31,10.0,Calm,Calm,-,N/A,,Clear,0,2013-05-26 09:14:00
5:33 AM,36.7,32.2,84,30.31,10.0,Calm,Calm,-,N/A,,Clear,0,2013-05-26 09:33:00
5:54 AM,36.3,32.0,84,30.31,10.0,NNW,3.5,-,N/A,,Clear,330,2013-05-26 09:54:00
6:14 AM,35.6,32.0,87,30.32,10.0,NNW,3.5,-,N/A,,Clear,340,2013-05-26 10:14:00
6:33 AM,36.9,32.9,86,30.32,10.0,NNW,3.5,-,N/A,,Clear,330,2013-05-26 10:33:00
6:54 AM,38.1,34.0,85,30.33,10.0,NNW,4.6,-,N/A,,Clear,330,2013-05-26 10:54:00
7:14 AM,40.5,35.1,81,30.34,10.0,NNW,5.8,-,N/A,,Clear,330,2013-05-26 11:14:00
7:34 AM,42.6,36.1,78,30.35,10.0,Calm,Calm,-,N/A,,Clear,0,2013-05-26 11:34:00
7:54 AM,45.5,36.9,72,30.35,10.0,NNW,3.5,-,N/A,,Clear,340,2013-05-26 11:54:00
8:14 AM,47.3,37.2,68,30.35,10.0,North,3.5,-,N/A,,Clear,350,2013-05-26 12:14:00
8:34 AM,48.7,37.2,64,30.35,10.0,NNE,4.6,-,N/A,,Clear,20,2013-05-26 12:34:00
8:54 AM,51.3,37.4,59,30.34,10.0,Calm,Calm,-,N/A,,Clear,0,2013-05-26 12:54:00
9:14 AM,53.6,34.0,47,30.36,10.0,NE,5.8,-,N/A,,Clear,50,2013-05-26 13:14:00
9:34 AM,53.8,33.6,46,30.37,10.0,NE,8.1,-,N/A,,Clear,50,2013-05-26 13:34:00
9:54 AM,54.1,31.8,43,30.37,10.0,NNE,6.9,-,N/A,,Clear,30,2013-05-26 13:54:00
10:14 AM,54.7,31.8,42,30.36,10.0,ENE,3.5,-,N/A,,Clear,60,2013-05-26 14:14:00
10:34 AM,55.4,30.9,39,30.36,10.0,ENE,3.5,-,N/A,,Clear,60,2013-05-26 14:34:00
10:54 AM,55.9,31.5,39,30.35,10.0,East,5.8,-,N/A,,Clear,80,2013-05-26 14:54:00
11:14 AM,57.2,31.8,38,30.35,10.0,East,6.9,-,N/A,,Clear,90,2013-05-26 15:14:00
11:34 AM,57.4,31.8,38,30.34,10.0,East,8.1,-,N/A,,Clear,90,2013-05-26 15:34:00
11:54 AM,57.4,32.0,38,30.34,10.0,East,9.2,-,N/A,,Clear,100,2013-05-26 15:54:00
12:13 PM,57.4,32.2,39,30.34,10.0,East,9.2,-,N/A,,Clear,100,2013-05-26 16:13:00
12:34 PM,57.2,33.4,41,30.34,10.0,East,10.4,-,N/A,,Clear,90,2013-05-26 16:34:00
12:54 PM,55.9,33.8,43,30.34,10.0,East,9.2,-,N/A,,Clear,80,2013-05-26 16:54:00
1:13 PM,55.8,32.9,42,30.34,10.0,East,10.4,-,N/A,,Clear,90,2013-05-26 17:13:00
1:34 PM,55.9,32.4,41,30.34,10.0,East,10.4,-,N/A,,Clear,90,2013-05-26 17:34:00
1:54 PM,56.3,33.8,43,30.34,10.0,East,9.2,-,N/A,,Clear,90,2013-05-26 17:54:00
2:14 PM,55.6,33.4,43,30.33,10.0,East,9.2,-,N/A,,Clear,100,2013-05-26 18:14:00
2:34 PM,55.6,32.5,42,30.33,10.0,East,9.2,-,N/A,,Clear,90,2013-05-26 18:34:00
2:54 PM,55.0,32.4,42,30.33,10.0,East,10.4,-,N/A,,Clear,100,2013-05-26 18:54:00
3:14 PM,55.4,32.5,42,30.33,10.0,ESE,9.2,-,N/A,,Clear,110,2013-05-26 19:14:00
3:34 PM,55.4,30.7,39,30.33,10.0,East,9.2,-,N/A,,Clear,100,2013-05-26 19:34:00
3:53 PM,56.3,30.0,37,30.32,10.0,East,9.2,-,N/A,,Clear,90,2013-05-26 19:53:00
4:14 PM,55.8,28.8,36,30.32,10.0,ESE,6.9,-,N/A,,Clear,120,2013-05-26 20:14:00
4:34 PM,56.3,28.0,34,30.31,10.0,East,8.1,-,N/A,,Clear,100,2013-05-26 20:34:00
4:54 PM,56.8,28.0,33,30.30,10.0,East,6.9,-,N/A,,Clear,90,2013-05-26 20:54:00
5:14 PM,56.3,27.1,33,30.30,10.0,East,6.9,-,N/A,,Clear,80,2013-05-26 21:14:00
5:34 PM,55.9,28.2,35,30.29,10.0,East,5.8,-,N/A,,Clear,90,2013-05-26 21:34:00
5:54 PM,55.9,27.0,33,30.29,10.0,East,4.6,-,N/A,,Clear,80,2013-05-26 21:54:00
6:14 PM,55.9,26.8,33,30.28,10.0,East,5.8,-,N/A,,Clear,90,2013-05-26 22:14:00
6:33 PM,55.8,26.8,33,30.28,10.0,East,4.6,-,N/A,,Clear,80,2013-05-26 22:33:00
6:54 PM,55.8,26.8,33,30.27,10.0,ENE,4.6,-,N/A,,Clear,60,2013-05-26 22:54:00
7:14 PM,55.8,27.3,34,30.27,10.0,ESE,3.5,-,N/A,,Clear,110,2013-05-26 23:14:00
7:33 PM,55.4,27.1,34,30.27,10.0,East,3.5,-,N/A,,Clear,90,2013-05-26 23:33:00
7:54 PM,54.9,26.8,34,30.26,10.0,ENE,3.5,-,N/A,,Clear,70,2013-05-26 23:54:00
8:14 PM,54.5,26.8,34,30.26,10.0,South,3.5,-,N/A,,Clear,170,2013-05-27 00:14:00
8:33 PM,54.5,26.1,33,30.26,10.0,Calm,Calm,-,N/A,,Clear,0,2013-05-27 00:33:00
8:54 PM,53.6,26.6,35,30.26,10.0,South,3.5,-,N/A,,Clear,190,2013-05-27 00:54:00
9:14 PM,51.4,30.0,44,30.26,10.0,South,3.5,-,N/A,,Clear,190,2013-05-27 01:14:00
9:33 PM,46.6,31.8,56,30.26,10.0,Calm,Calm,-,N/A,,Clear,0,2013-05-27 01:33:00
9:54 PM,46.8,32.0,57,30.26,10.0,SW,3.5,-,N/A,,Clear,230,2013-05-27 01:54:00
10:14 PM,44.1,33.8,67,30.26,10.0,SW,3.5,-,N/A,,Clear,230,2013-05-27 02:14:00
10:33 PM,42.8,33.1,69,30.26,10.0,SW,3.5,-,N/A,,Clear,220,2013-05-27 02:33:00
10:54 PM,42.6,34.3,73,30.26,10.0,SW,3.5,-,N/A,,Clear,220,2013-05-27 02:54:00
11:14 PM,41.9,33.6,72,30.26,10.0,Calm,Calm,-,N/A,,Clear,0,2013-05-27 03:14:00
11:33 PM,40.8,32.5,72,30.26,10.0,Calm,Calm,-,N/A,,Clear,0,2013-05-27 03:33:00
11:54 PM,37.4,33.3,85,30.26,10.0,WSW,4.6,-,N/A,,Clear,250,2013-05-27 03:54:00